Wind_Speed
20 26 36 38 46 58 63 64 66 63 49 65 60 55 51 53 56 52 50 49 50 52 52 55 62 63 60 61 63 62 62 63 61 58 57 57 56 55 54 52 50 48 46 46
14 17 24 38 36 51 53 46 55 61 59 54 54 55 50 47 51 51 51 50 50 51 53 56 55 54 60 61 58 61 62 63 63 60 59 59 59 58 58 56 54 51 49 48
17 16 16 23 30 30 28 40 44 41 41 54 67 64 63 57 52 54 52 50 47 46 50 52 56 59 58 59 62 62 61 62 64 62 61 61 61 61 60 60 59 56 54 52
20 18 17 21 21 18 22 21 28 43 46 34 59 67 66 61 52 54 50 44 40 40 42 46 48 52 58 60 60 62 64 64 64 65 64 63 62 62 63 63 62 59 57 55
8 22 23 20 18 15 14 18 19 25 35 38 37 53 59 58 59 52 50 46 46 44 44 45 45 45 49 55 56 58 61 63 64 65 65 63 61 61 63 63 63 61 59 57
3 4 16 27 24 22 18 18 18 20 23 30 38 42 45 56 51 48 50 49 50 50 49 48 47 47 46 48 50 47 47 53 57 60 59 60 58 57 58 57 58 60 59 58
2 2 5 14 21 28 26 26 25 24 24 26 29 32 34 43 51 52 51 50 52 52 51 53 50 50 48 47 48 50 49 42 46 49 52 53 52 49 49 51 58 56 56 56
5 2 0 5 7 14 23 29 32 30 27 26 28 32 33 34 37 38 46 46 51 56 53 50 50 49 47 46 44 47 48 46 43 44 49 51 49 48 50 49 46 49 53 53
7 6 3 0 3 4 7 15 23 29 34 37 34 31 34 34 36 37 39 42 44 50 47 45 43 46 43 44 39 43 48 52 48 46 47 46 50 50 51 50 52 48 46 46
10 10 8 5 3 0 3 5 9 14 22 30 35 40 42 37 37 37 38 41 43 45 47 46 46 51 52 47 45 45 43 48 55 53 49 51 51 50 50 50 50 49 49 46
10 9 9 9 7 5 5 4 5 8 11 16 24 31 35 42 49 46 44 42 42 42 41 43 49 46 46 51 48 47 49 49 47 54 53 53 51 51 50 50 51 50 48 45
15 14 13 12 12 11 9 9 9 7 8 10 14 16 21 30 38 40 50 54 51 49 50 48 47 46 46 47 50 53 53 50 50 52 53 56 55 51 51 51 51 50 50 49
17 15 14 16 17 16 15 13 13 13 12 11 12 13 15 16 18 22 34 43 48 53 58 59 55 57 57 53 51 51 52 55 53 54 58 50 58 60 53 52 52 52 49 48
19 19 18 16 15 15 18 19 19 18 17 17 17 17 16 16 16 19 22 25 29 34 41 47 52 56 59 58 56 57 51 54 58 59 61 64 58 55 59 56 56 55 53 51
19 18 18 19 19 19 18 17 18 20 22 22 22 22 22 22 22 20 19 19 23 21 25 32 39 44 50 54 58 59 61 60 60 62 59 60 60 59 58 59 56 56 53 51
18 18 18 19 20 20 20 20 20 20 20 22 25 26 26 27 27 26 26 25 25 27 24 22 25 30 38 46 51 55 59 62 65 65 65 62 62 64 59 60 60 57 55 52
17 19 19 19 20 21 21 22 22 22 22 23 23 25 27 30 31 32 32 32 32 32 31 28 27 27 33 36 39 42 46 52 59 65 67 68 69 66 68 58 54 57 58 54
17 18 19 21 22 23 23 24 25 26 26 25 25 25 26 26 28 31 34 35 36 35 35 33 32 31 31 30 31 38 41 41 45 53 62 68 71 72 68 65 58 54 58 58
19 18 20 21 23 24 26 27 27 28 29 29 29 30 29 29 28 29 30 31 35 39 39 38 38 36 35 35 32 31 35 42 42 39 39 53 73 79 75 68 65 61 59 58
20 20 19 19 21 23 25 27 28 30 32 31 32 33 34 34 33 32 32 32 32 33 37 41 43 43 41 39 39 36 31 32 36 43 41 37 57 77 80 78 74 68 64 62
21 21 21 20 20 21 22 24 26 28 30 32 32 34 35 37 37 37 36 36 35 34 35 36 37 42 45 44 42 41 36 31 30 35 32 38 42 56 74 81 80 76 71 69
23 22 21 21 21 21 21 21 22 22 24 26 29 31 32 34 36 37 38 38 39 38 37 37 37 37 39 44 45 43 40 35 30 34 31 32 39 44 51 66 80 79 73 70
25 24 23 23 22 22 23 23 23 23 23 24 25 26 28 30 32 33 36 38 38 40 40 40 39 38 37 39 40 44 42 38 33 29 31 26 35 40 46 52 68 78 77 72
27 26 25 25 24 23 23 25 26 26 27 27 27 29 30 31 32 30 32 34 36 38 38 40 42 41 38 40 38 39 43 42 37 33 31 30 29 39 43 47 52 67 79 68
29 27 26 25 24 25 26 26 28 28 29 30 30 30 30 30 30 32 32 33 34 35 36 38 39 41 42 41 39 39 39 42 42 37 33 31 30 34 42 42 49 54 70 69
29 28 28 28 27 27 28 28 29 30 28 26 26 25 26 26 27 28 29 31 32 34 35 36 38 38 39 41 42 40 40 39 42 42 37 34 31 33 40 43 44 48 59 69
33 32 30 30 29 29 30 28 24 23 23 24 25 28 29 30 31 31 30 31 32 32 33 34 36 38 38 39 41 42 41 41 40 43 42 39 36 35 37 38 39 48 54 60
Wind_Direction
218 225 226 219 219 217 222 227 232 235 236 221 220 224 231 233 235 240 241 240 241 241 241 241 241 240 240 239 239 240 239 240 238 238 240 240 241 242 243 242 241 240 242 243
206 216 226 229 222 217 223 228 231 238 231 227 232 232 230 223 229 234 236 241 245 245 244 241 239 237 237 238 237 237 237 239 240 237 236 238 240 241 242 242 242 241 241 242
213 212 213 223 233 234 229 231 230 221 224 227 229 236 231 227 228 233 234 240 241 239 238 237 236 237 237 235 234 236 237 236 238 237 237 235 237 239 241 241 242 242 242 242
216 223 221 219 228 235 230 226 228 233 236 230 225 222 225 223 228 228 227 224 230 232 231 230 231 230 230 233 234 234 235 236 235 236 236 235 235 236 238 240 241 241 241 242
240 223 229 226 223 220 216 223 221 215 222 225 226 211 211 215 220 214 222 229 236 238 235 229 230 230 229 230 229 232 232 233 234 233 233 234 233 234 236 238 239 240 240 240
43 228 222 232 233 234 227 217 212 214 213 211 221 228 211 212 222 229 232 229 239 238 237 231 229 228 229 228 228 225 232 231 232 231 231 231 232 233 236 237 238 239 240 240
344 118 197 222 230 233 234 232 228 226 225 221 214 220 220 220 223 228 229 238 244 246 241 227 225 227 229 230 229 229 224 231 233 230 229 227 229 230 232 235 238 239 241 242
39 36 216 195 219 241 232 233 236 234 228 228 231 233 233 223 219 218 220 226 231 233 225 225 228 227 228 230 234 233 232 222 236 235 232 229 226 227 229 230 235 236 238 240
46 47 33 121 211 229 229 227 231 233 236 237 235 234 238 242 243 245 244 241 241 229 229 226 228 231 233 232 235 241 234 224 222 227 235 234 229 229 231 231 232 232 233 236
357 7 28 41 57 109 211 212 226 232 228 231 237 240 238 235 240 241 241 246 245 242 244 244 243 235 239 243 244 243 244 235 229 224 231 236 231 228 230 230 231 233 233 236
313 313 320 320 318 316 319 294 233 225 229 229 229 228 237 244 244 241 241 237 239 239 240 242 245 243 242 246 249 244 242 241 234 228 228 239 236 230 232 235 233 231 232 230
288 286 285 283 282 283 278 281 282 254 236 216 218 228 230 228 229 238 244 239 236 239 241 242 244 248 246 245 247 245 245 243 240 229 227 231 236 236 232 233 236 236 235 236
304 296 282 272 267 269 268 267 267 267 261 252 242 219 215 218 221 226 233 235 237 243 245 242 241 243 244 244 247 245 244 240 239 238 227 228 234 232 230 236 236 236 239 233
302 295 289 282 277 270 265 262 260 261 262 262 256 254 257 253 242 228 228 231 238 241 238 237 243 248 248 247 248 250 250 244 242 241 237 234 234 236 233 230 234 232 234 233
296 291 286 284 280 275 271 269 265 260 255 254 257 257 257 257 255 250 241 239 239 241 240 242 243 239 240 242 246 247 249 246 240 237 237 236 238 236 237 231 227 228 224 224
297 291 286 282 280 277 275 271 267 264 263 258 254 252 253 254 256 257 257 257 258 260 254 245 242 240 239 240 240 241 241 242 242 240 238 237 235 230 229 232 226 225 223 222
301 295 288 278 274 272 270 270 271 270 267 263 261 259 256 253 250 250 252 252 251 253 255 257 253 248 246 249 248 246 246 244 241 238 238 240 238 237 237 234 227 226 222 221
307 295 287 284 281 278 274 270 268 268 267 267 267 265 262 260 259 257 254 253 255 255 255 256 257 256 255 251 253 248 250 252 252 248 242 232 231 231 230 229 227 231 226 222
322 309 298 289 283 279 275 273 271 269 268 268 267 267 266 265 265 264 261 259 256 256 255 255 256 256 258 261 258 255 258 254 254 254 254 239 228 225 223 222 221 223 229 225
326 322 313 301 291 282 278 276 274 273 270 266 266 267 267 266 264 264 264 263 261 259 258 254 252 253 255 256 260 261 258 257 252 249 255 257 231 221 219 218 221 223 224 227
326 320 316 311 303 295 288 281 278 277 276 275 272 269 267 266 266 264 263 263 261 260 259 259 256 251 249 251 254 258 261 259 255 248 253 249 243 233 224 216 215 218 220 223
330 323 317 312 308 304 299 293 290 287 284 281 277 274 272 270 268 266 264 261 261 260 258 258 258 256 255 249 248 252 255 259 257 244 253 250 238 233 229 223 214 212 214 218
330 324 317 312 307 302 300 300 298 296 293 289 286 283 280 276 272 271 270 264 260 258 257 256 256 255 255 256 250 246 249 252 256 250 246 250 237 231 228 225 223 213 209 210
330 326 320 316 311 307 303 301 300 299 296 292 289 287 284 282 279 273 269 268 266 263 258 254 253 253 252 252 253 248 245 247 248 251 248 244 238 231 226 226 223 222 216 214
329 327 323 319 316 311 308 307 305 303 300 297 294 291 287 284 281 278 273 268 266 264 262 259 255 251 249 250 249 249 246 243 245 245 247 246 236 233 224 223 227 223 222 218
330 328 325 321 319 316 313 311 309 306 304 302 299 296 294 290 286 282 279 275 270 266 262 261 258 254 250 248 246 246 245 243 241 242 243 242 238 235 226 222 223 227 224 223
330 329 327 324 321 319 316 315 314 312 309 306 302 299 296 293 290 286 281 278 275 271 266 261 259 256 253 250 246 243 242 241 240 238 237 236 234 229 224 225 229 225 225 227
Height
5418 5420 5426 5433 5439 5447 5455 5461 5465 5473 5485 5490 5500 5509 5520 5527 5534 5541 5548 5555 5562 5569 5576 5582 5589 5597 5604 5612 5620 5626 5632 5636 5643 5649 5655 5661 5666 5672 5676 5681 5685 5690 5694 5698
5416 5418 5421 5425 5432 5439 5442 5450 5457 5464 5474 5481 5491 5501 5508 5515 5523 5530 5536 5543 5549 5555 5561 5568 5574 5581 5589 5597 5604 5610 5616 5621 5628 5635 5640 5646 5652 5658 5664 5668 5673 5678 5682 5687
5416 5417 5420 5426 5428 5434 5439 5443 5449 5455 5463 5470 5480 5488 5496 5504 5511 5519 5525 5531 5536 5540 5546 5552 5559 5567 5573 5579 5587 5594 5600 5608 5613 5619 5625 5631 5637 5643 5650 5655 5659 5665 5669 5673
5413 5416 5419 5422 5425 5427 5433 5438 5443 5448 5455 5462 5466 5475 5483 5491 5500 5508 5514 5519 5524 5529 5534 5539 5544 5549 5556 5562 5571 5578 5585 5590 5597 5603 5609 5616 5621 5627 5634 5641 5646 5650 5655 5661
5411 5412 5416 5419 5422 5425 5427 5432 5438 5443 5450 5455 5458 5462 5470 5478 5487 5495 5502 5507 5513 5519 5524 5528 5532 5536 5542 5548 5555 5562 5568 5574 5580 5587 5594 5600 5606 5612 5618 5625 5631 5636 5641 5647
5411 5411 5412 5414 5418 5421 5424 5430 5434 5439 5442 5447 5453 5458 5459 5468 5476 5482 5489 5495 5501 5507 5513 5517 5521 5525 5531 5537 5543 5549 5555 5560 5566 5573 5579 5585 5591 5598 5605 5611 5616 5622 5627 5632
5411 5410 5411 5411 5413 5416 5422 5428 5428 5432 5436 5441 5445 5451 5455 5457 5464 5471 5477 5483 5489 5494 5500 5506 5509 5513 5519 5525 5531 5537 5543 5549 5554 5560 5566 5571 5577 5585 5592 5597 5601 5608 5614 5619
5411 5410 5410 5409 5411 5414 5414 5415 5420 5424 5429 5433 5437 5442 5446 5450 5454 5458 5464 5471 5477 5484 5488 5493 5497 5502 5508 5513 5519 5525 5531 5536 5543 5548 5554 5559 5565 5571 5577 5584 5590 5594 5600 5606
5414 5412 5410 5409 5409 5409 5409 5410 5412 5415 5420 5425 5429 5432 5437 5440 5445 5449 5455 5461 5466 5472 5477 5481 5487 5491 5496 5501 5507 5513 5519 5525 5530 5537 5542 5547 5553 5559 5565 5571 5577 5583 5589 5594
5413 5411 5410 5409 5408 5407 5407 5407 5408 5409 5411 5413 5418 5422 5428 5432 5435 5439 5444 5449 5455 5459 5463 5469 5475 5479 5484 5490 5496 5502 5507 5512 5518 5524 5530 5536 5541 5547 5552 5558 5564 5570 5576 5582
5411 5410 5408 5407 5407 5406 5406 5405 5405 5405 5406 5407 5408 5410 5413 5419 5425 5430 5434 5437 5442 5447 5450 5454 5461 5466 5471 5477 5482 5489 5495 5500 5505 5512 5517 5523 5529 5534 5540 5546 5552 5558 5563 5570
5407 5406 5405 5404 5404 5403 5403 5403 5403 5402 5402 5402 5403 5404 5406 5408 5411 5414 5420 5425 5429 5433 5437 5443 5448 5452 5456 5462 5468 5475 5481 5486 5492 5498 5504 5510 5515 5521 5527 5533 5540 5546 5552 5557
5402 5400 5400 5399 5398 5398 5398 5398 5398 5398 5398 5399 5399 5399 5400 5401 5402 5403 5406 5409 5413 5419 5423 5428 5433 5438 5442 5447 5453 5459 5465 5471 5477 5484 5492 5496 5502 5507 5513 5520 5526 5533 5539 5545
5395 5394 5393 5392 5392 5392 5391 5391 5391 5392 5392 5392 5393 5393 5393 5394 5395 5396 5397 5399 5401 5403 5406 5409 5415 5420 5425 5430 5436 5442 5449 5455 5461 5467 5474 5482 5488 5494 5500 5506 5513 5519 5526 5532
5388 5386 5385 5385 5384 5384 5384 5384 5385 5384 5385 5385 5385 5385 5386 5386 5387 5388 5389 5391 5393 5395 5397 5398 5400 5402 5407 5412 5418 5424 5431 5438 5444 5450 5458 5464 5472 5478 5485 5492 5499 5506 5511 5518
5380 5379 5378 5377 5376 5376 5376 5376 5376 5377 5377 5377 5377 5377 5378 5378 5378 5379 5380 5381 5382 5384 5386 5387 5389 5391 5394 5397 5400 5405 5411 5417 5424 5431 5439 5447 5454 5461 5468 5476 5484 5491 5497 5504
5373 5372 5370 5369 5369 5369 5368 5367 5367 5367 5367 5368 5368 5368 5368 5369 5370 5371 5371 5372 5374 5375 5376 5377 5379 5381 5383 5385 5386 5390 5393 5397 5402 5409 5416 5425 5434 5443 5452 5460 5467 5474 5482 5489
5369 5366 5364 5362 5361 5360 5359 5359 5358 5357 5357 5357 5357 5357 5357 5357 5357 5358 5359 5361 5362 5363 5364 5366 5367 5368 5370 5372 5374 5376 5379 5381 5383 5387 5393 5401 5411 5422 5432 5441 5451 5458 5466 5474
5363 5360 5358 5356 5354 5352 5351 5350 5349 5348 5347 5347 5346 5346 5346 5346 5346 5346 5346 5347 5348 5349 5351 5353 5354 5356 5358 5359 5361 5363 5364 5366 5368 5371 5372 5376 5386 5397 5409 5420 5431 5442 5450 5457
5358 5354 5351 5349 5346 5344 5343 5341 5339 5338 5337 5337 5336 5335 5335 5334 5335 5334 5334 5334 5336 5336 5336 5338 5341 5344 5345 5347 5349 5350 5352 5353 5354 5356 5358 5358 5361 5371 5383 5397 5410 5422 5433 5441
5353 5349 5345 5342 5339 5336 5334 5332 5330 5329 5327 5325 5325 5324 5324 5323 5322 5323 5323 5323 5324 5325 5325 5325 5327 5329 5332 5334 5336 5337 5339 5340 5341 5342 5343 5345 5347 5351 5360 5374 5387 5401 5413 5424
5348 5344 5340 5336 5332 5329 5326 5324 5322 5320 5318 5316 5314 5313 5312 5311 5310 5310 5310 5311 5310 5312 5313 5313 5314 5315 5316 5319 5322 5324 5326 5327 5328 5329 5331 5332 5334 5339 5346 5354 5366 5379 5392 5404
5343 5339 5335 5331 5327 5323 5319 5317 5314 5312 5310 5307 5305 5303 5300 5299 5298 5298 5296 5296 5298 5298 5299 5300 5301 5303 5304 5304 5308 5310 5313 5315 5316 5318 5320 5322 5324 5328 5334 5341 5351 5362 5374 5385
5337 5333 5328 5323 5319 5316 5313 5309 5306 5303 5300 5298 5295 5293 5290 5288 5285 5286 5284 5283 5282 5283 5284 5286 5286 5288 5291 5292 5294 5296 5299 5302 5305 5307 5309 5312 5314 5318 5323 5330 5337 5346 5357 5367
5330 5326 5321 5317 5312 5308 5304 5301 5297 5293 5290 5286 5284 5281 5278 5276 5274 5271 5271 5270 5270 5269 5269 5270 5272 5273 5276 5278 5281 5283 5286 5289 5293 5296 5299 5301 5304 5308 5313 5319 5326 5334 5343 5350
5324 5319 5314 5309 5304 5300 5296 5292 5287 5283 5280 5276 5273 5270 5267 5265 5262 5260 5258 5257 5256 5256 5256 5256 5257 5259 5260 5263 5267 5270 5273 5276 5280 5284 5287 5290 5294 5297 5302 5308 5314 5322 5330 5338
5316 5311 5306 5301 5296 5291 5287 5283 5278 5275 5272 5269 5265 5261 5258 5254 5251 5249 5247 5245 5243 5242 5242 5243 5243 5244 5246 5248 5251 5255 5259 5263 5266 5270 5275 5280 5283 5288 5293 5298 5303 5309 5316 5323